East Wenatchee, WA

4:30 AM PST on December 08, 2016 (GMT -0800)
Pangborn Memorial

Weather History for KEAT - January, 2012

Change the Weather History Date:

Tuesday, January 3, 2012

  Actual Average Record
Temperature  
Mean Temperature 32 °F 27 °F  
Max Temperature 41 °F 32 °F 51 °F (1963)
Min Temperature 23 °F 23 °F -1 °F (1993)
Degree Days  
Heating Degree Days 33 38  
Month to date heating degree days 104 114  
Since 1 July heating degree days 3110 2634  
Cooling Degree Days 0 0  
Month to date cooling degree days 0 0  
Year to date cooling degree days 0 0  
Moisture  
Dew Point 26 °F    
Average Humidity 90    
Maximum Humidity 100    
Minimum Humidity 82    
Precipitation  
Precipitation T in 0.04 in 0.37 in (1966)
Month to date precipitation T 0.11  
Year to date precipitation T 0.11  
Snow  
Snow 0.00 in - - ()
Month to date snowfall 0.0  
Snow Depth 0.00 in    
Sea Level Pressure  
Sea Level Pressure 30.37 in    
Wind  
Wind Speed 2 mph (NW)    
Max Wind Speed 6 mph    
Max Gust Speed -    
Visibility 6 miles    
Events Fog    
T = Trace of Precipitation, MM = Missing Value Source: NWS Daily Summary

Daily Weather History Graph

Daily Weather History Graph

Search for Another Location

Airport or City:

Trip Planner

Search our weather history database for the weather conditions in past years. The results will help you decide how hot, cold, wet, or windy it might be!

Date:

Astronomy

Jan. 03, 2012 Rise Set
Actual Time 7:48 AM PST 4:22 PM PST
Civil Twilight 7:12 AM PST 4:58 PM PST
Nautical Twilight 6:33 AM PST 5:36 PM PST
Astronomical Twilight 5:56 AM PST 6:14 PM PST
Moon 12:18 PM PST (1/3) 2:36 AM PST (1/3)
Length of Visible Light 9h 45m
Length of Day
8h 34m
Waxing Gibbous, 73% of the Moon is Illuminated
Jan 3
Waxing Gibbous
Jan 8
Full
Jan 16
Last Quarter
Jan 22
New
Jan 30
First Quarter

Hourly Weather History & Observations

Time (PST) Temp. Windchill Dew Point Humidity Pressure Visibility Wind Dir Wind Speed Gust Speed Precip Events Conditions
12:55 AM 23.0 °F - 21.0 °F 92% 30.27 in 10.0 mi Calm Calm - N/A   Clear
3:55 AM 24.1 °F - 21.9 °F 91% 30.33 in 10.0 mi Calm Calm - N/A   Clear
4:55 AM 26.1 °F - 21.9 °F 84% 30.34 in 10.0 mi Calm Calm - N/A   Clear
5:55 AM 26.1 °F - 21.9 °F 84% 30.36 in 10.0 mi Calm Calm - N/A   Clear
6:55 AM 24.1 °F 18.2 °F 21.9 °F 91% 30.36 in 10.0 mi WNW 4.6 mph - N/A   Clear
7:41 AM 24.8 °F - 21.2 °F 86% 30.34 in 1.5 mi Calm Calm - N/A   Scattered Clouds
7:45 AM 24.8 °F 20.5 °F 21.2 °F 86% 30.33 in 0.2 mi NNW 3.5 mph - N/A Fog Light Freezing Fog
7:55 AM 24.1 °F 19.7 °F 21.9 °F 91% 30.39 in 0.2 mi NW 3.5 mph - N/A Fog Light Freezing Fog
8:05 AM 23.0 °F - 21.2 °F 93% 30.35 in 0.2 mi Calm Calm - N/A Fog Light Freezing Fog
8:55 AM 25.0 °F 19.3 °F 23.0 °F 92% 30.42 in 0.2 mi NE 4.6 mph - N/A Fog Light Freezing Fog
9:55 AM 27.0 °F - 25.0 °F 92% 30.43 in 0.2 mi Calm Calm - N/A Fog Light Freezing Fog
10:26 AM 26.6 °F 21.2 °F 26.6 °F 100% 30.39 in 1.0 mi NW 4.6 mph - N/A   Overcast
10:42 AM 28.4 °F 24.6 °F 26.6 °F 93% 30.38 in 2.5 mi WNW 3.5 mph - N/A   Overcast
10:52 AM 28.4 °F 22.2 °F 26.6 °F 93% 30.37 in 4.0 mi WNW 5.8 mph - N/A   Overcast
10:55 AM 28.9 °F 22.8 °F 27.0 °F 92% 30.42 in 4.0 mi WNW 5.8 mph - N/A   Overcast
11:55 AM 28.9 °F 25.2 °F 28.0 °F 96% 30.40 in 4.0 mi West 3.5 mph - N/A   Mostly Cloudy
12:30 PM 30.2 °F - 28.4 °F 93% 30.36 in 5.0 mi Calm Calm - N/A   Scattered Clouds
12:55 PM 30.0 °F - 28.0 °F 92% 30.40 in 6.0 mi Calm Calm - N/A   Scattered Clouds
1:55 PM 30.9 °F 26.2 °F 28.0 °F 89% 30.38 in 9.0 mi WNW 4.6 mph - N/A   Clear
2:55 PM 32.0 °F - 28.9 °F 88% 30.38 in 10.0 mi Calm Calm - N/A   Clear
3:55 PM 32.0 °F - 28.9 °F 88% 30.36 in 10.0 mi Calm Calm - N/A   Partly Cloudy
4:55 PM 33.1 °F - 28.9 °F 85% 30.39 in 10.0 mi Calm Calm - N/A   Clear
5:55 PM 33.1 °F 30.0 °F 28.9 °F 85% 30.37 in 10.0 mi NNE 3.5 mph - N/A   Mostly Cloudy
6:55 PM 34.0 °F - 28.9 °F 82% 30.38 in 10.0 mi Calm Calm - N/A   Overcast
7:55 PM 33.1 °F - 30.0 °F 89% 30.38 in 10.0 mi Calm Calm - 0.00 in   Mostly Cloudy
8:55 PM 32.0 °F - 28.9 °F 88% 30.35 in 10.0 mi Calm Calm - N/A   Mostly Cloudy
9:55 PM 33.1 °F - 28.9 °F 85% 30.36 in 10.0 mi Calm Calm - N/A   Clear
10:55 PM 30.9 °F 26.2 °F 28.0 °F 89% 30.35 in 10.0 mi NW 4.6 mph - N/A   Clear
11:55 PM 32.0 °F 28.7 °F 28.9 °F 88% 30.34 in 10.0 mi NNW 3.5 mph - N/A   Mostly Cloudy